FW8871 Weather Reports


Display with metric or nautical units.
time (UTC)temp
F
wind
direction
speed
MPH
gust
MPH
rain 1hr
in
rain 24hr
in
rain mn
in
humidity
%
barometer
mb
20260902194606 99 191 19.0 25.0 0.00 0.00 0.00 29 1013.5
20260902194048 99 198 16.0 24.0 0.00 0.00 0.00 29 1013.7
20260902193548 99 198 16.0 28.0 0.00 0.00 0.00 29 1013.9
20260902193101 99 167 18.0 28.0 0.00 0.00 0.00 30 1014.0
20260902192550 98 193 17.0 24.0 0.00 0.00 0.00 30 1014.1
20260902192050 98 170 15.0 24.0 0.00 0.00 0.00 30 1014.0
20260902191607 98 211 18.0 28.0 0.00 0.00 0.00 29 1014.2
20260902191048 98 195 17.0 28.0 0.00 0.00 0.00 30 1014.3
20260902190548 98 207 17.0 26.0 0.00 0.00 0.00 30 1014.4
20260902190108 98 172 16.0 24.0 0.00 0.00 0.00 30 1014.4
20260902185548 97 196 16.0 23.0 0.00 0.00 0.00 30 1014.4
20260902185049 97 145 16.0 28.0 0.00 0.00 0.00 30 1014.6
20260902184608 97 229 15.0 28.0 0.00 0.00 0.00 31 1014.7
20260902184051 97 181 15.0 21.0 0.00 0.00 0.00 30 1014.8
20260902183548 97 207 12.0 20.0 0.00 0.00 0.00 31 1014.9
20260902183112 97 207 13.0 20.0 0.00 0.00 0.00 31 1015.0
20260902182548 97 200 12.0 20.0 0.00 0.00 0.00 31 1015.2
20260902182051 96 205 11.0 21.0 0.00 0.00 0.00 32 1015.1
20260902181612 96 212 13.0 21.0 0.00 0.00 0.00 33 1015.3
20260902181047 96 167 14.0 21.0 0.00 0.00 0.00 33 1015.2
20260902180547 96 203 13.0 19.0 0.00 0.00 0.00 33 1015.3
20260902180106 96 190 11.0 21.0 0.00 0.00 0.00 33 1015.4
20260902175548 95 207 11.0 21.0 0.00 0.00 0.00 34 1015.4
20260902175052 94 210 13.0 22.0 0.00 0.00 0.00 34 1015.5
20260902174603 94 226 14.0 22.0 0.00 0.00 0.00 34 1015.7
20260902174049 94 252 16.0 22.0 0.00 0.00 0.00 34 1015.7
20260902173549 94 219 14.0 20.0 0.00 0.00 0.00 35 1015.6
20260902173120 94 207 12.0 20.0 0.00 0.00 0.00 34 1015.7
20260902172549 94 188 14.0 20.0 0.00 0.00 0.00 35 1015.7
20260902172050 94 223 10.0 18.0 0.00 0.00 0.00 35 1015.8
20260902171609 93 185 13.0 22.0 0.00 0.00 0.00 36 1016.0
20260902171049 92 210 14.0 22.0 0.00 0.00 0.00 35 1015.9
20260902170548 93 232 16.0 22.0 0.00 0.00 0.00 35 1015.9
20260902170106 93 227 12.0 21.0 0.00 0.00 0.00 35 1016.0
20260902165546 93 203 13.0 23.0 0.00 0.00 0.00 36 1016.1
20260902165046 92 229 14.0 23.0 0.00 0.00 0.00 36 1016.0
20260902164605 91 191 13.0 21.0 0.00 0.00 0.00 37 1016.0
20260902164051 90 206 14.0 22.0 0.00 0.00 0.00 38 1016.0
20260902163546 90 243 15.0 23.0 0.00 0.00 0.00 37 1016.1
20260902163107 91 216 15.0 23.0 0.00 0.00 0.00 36 1016.3
20260902162547 92 212 15.0 24.0 0.00 0.00 0.00 36 1016.2
20260902162051 91 193 14.0 25.0 0.00 0.00 0.00 37 1016.2
20260902161610 90 190 18.0 25.0 0.00 0.00 0.00 37 1016.2
20260902161047 90 184 18.0 23.0 0.00 0.00 0.00 37 1016.4
20260902160546 89 204 17.0 23.0 0.00 0.00 0.00 38 1016.3
20260902160103 88 198 16.0 23.0 0.00 0.00 0.00 39 1016.2
20260902155546 89 202 16.0 23.0 0.00 0.00 0.00 38 1016.3
20260902155046 89 205 15.0 24.0 0.00 0.00 0.00 38 1016.2
20260902154605 89 198 14.0 26.0 0.00 0.00 0.00 37 1016.3
20260902154046 90 211 19.0 26.0 0.00 0.00 0.00 37 1016.3
20260902153551 89 230 18.0 26.0 0.00 0.00 0.00 37 1016.2
20260902153108 89 189 20.0 26.0 0.00 0.00 0.00 38 1016.2
20260902152551 89 219 20.0 26.0 0.00 0.00 0.00 38 1016.3
20260902152048 88 219 18.0 28.0 0.00 0.00 0.00 39 1016.1
20260902151602 88 191 17.0 28.0 0.00 0.00 0.00 39 1016.1
20260902151046 87 216 20.0 26.0 0.00 0.00 0.00 40 1016.1
20260902150546 86 188 16.0 25.0 0.00 0.00 0.00 41 1016.1
20260902150104 85 205 16.0 25.0 0.00 0.00 0.00 41 1016.2
20260902145546 85 194 17.0 25.0 0.00 0.00 0.00 42 1016.2
20260902145051 84 172 16.0 25.0 0.00 0.00 0.00 42 1016.2
20260902144601 84 192 18.0 24.0 0.00 0.00 0.00 43 1016.2
20260902144049 83 170 14.0 21.0 0.00 0.00 0.00 44 1016.1
20260902143546 82 184 15.0 21.0 0.00 0.00 0.00 46 1016.3
20260902143104 82 142 15.0 23.0 0.00 0.00 0.00 46 1016.4
20260902142546 82 127 14.0 23.0 0.00 0.00 0.00 45 1016.4
20260902142048 82 167 16.0 23.0 0.00 0.00 0.00 45 1016.4
20260902141602 82 185 14.0 22.0 0.00 0.00 0.00 45 1016.4
20260902141046 82 201 16.0 22.0 0.00 0.00 0.00 45 1016.3
20260902140546 82 156 15.0 21.0 0.00 0.00 0.00 46 1016.1
20260902140106 81 193 14.0 21.0 0.00 0.00 0.00 47 1016.2
20260902135546 81 174 15.0 21.0 0.00 0.00 0.00 47 1016.1
20260902135049 80 171 14.0 19.0 0.00 0.00 0.00 48 1016.2
20260902134557 80 167 14.0 22.0 0.00 0.00 0.00 49 1016.3
20260902134048 79 162 15.0 22.0 0.00 0.00 0.00 50 1016.2
20260902133549 79 189 14.0 19.0 0.00 0.00 0.00 51 1016.2
20260902133109 78 178 14.0 19.0 0.00 0.00 0.00 52 1016.2
20260902132547 78 155 12.0 19.0 0.00 0.00 0.00 53 1016.2
20260902132045 77 155 15.0 19.0 0.00 0.00 0.00 54 1016.2
20260902131604 76 171 12.0 19.0 0.00 0.00 0.00 55 1016.2
20260902131048 76 165 13.0 18.0 0.00 0.00 0.00 56 1016.2
20260902130545 75 171 12.0 18.0 0.00 0.00 0.00 56 1016.2
20260902130115 75 159 12.0 18.0 0.00 0.00 0.00 57 1016.3
20260902125546 74 162 13.0 18.0 0.00 0.00 0.00 57 1016.2
20260902125053 74 157 12.0 18.0 0.00 0.00 0.00 58 1016.2
20260902124557 74 162 11.0 17.0 0.00 0.00 0.00 58 1016.2
20260902124048 74 148 12.0 17.0 0.00 0.00 0.00 58 1016.2
20260902123545 73 183 12.0 17.0 0.00 0.00 0.00 58 1016.3
20260902123109 73 169 12.0 16.0 0.00 0.00 0.00 58 1016.3
20260902122547 73 164 12.0 16.0 0.00 0.00 0.00 58 1016.2
20260902122048 73 165 12.0 17.0 0.00 0.00 0.00 58 1016.1
20260902121601 74 155 12.0 17.0 0.00 0.00 0.00 57 1016.1
20260902121046 74 160 12.0 17.0 0.00 0.00 0.00 57 1016.0
20260902120550 74 163 12.0 16.0 0.00 0.00 0.00 57 1015.9
20260902115548 74 155 11.0 16.0 0.00 0.00 0.00 57 1015.8
20260902115046 74 168 11.0 15.0 0.00 0.00 0.00 57 1015.8
20260902114604 74 175 11.0 15.0 0.00 0.00 0.00 57 1015.7
20260902114046 73 169 10.0 16.0 0.00 0.00 0.00 57 1015.7
20260902113545 73 186 10.0 16.0 0.00 0.00 0.00 57 1015.7
20260902113100 73 169 10.0 14.0 0.00 0.00 0.00 57 1015.7
20260902112546 73 172 10.0 14.0 0.00 0.00 0.00 58 1015.7
20260902112052 72 160 9.0 13.0 0.00 0.00 0.00 58 1015.8
20260902111603 72 163 9.0 14.0 0.00 0.00 0.00 58 1015.8
20260902111046 72 148 10.0 14.0 0.00 0.00 0.00 58 1015.8
20260902110546 72 155 9.0 12.0 0.00 0.00 0.00 58 1015.8
20260902110104 72 165 9.0 12.0 0.00 0.00 0.00 58 1015.8
20260902105545 72 148 9.0 12.0 0.00 0.00 0.00 58 1015.8
20260902105046 72 140 9.0 12.0 0.00 0.00 0.00 58 1015.8
20260902104621 72 161 9.0 12.0 0.00 0.00 0.00 58 1015.8
20260902104047 72 166 9.0 11.0 0.00 0.00 0.00 58 1016.0
20260902103547 72 134 9.0 11.0 0.00 0.00 0.00 58 1016.0
20260902103117 72 150 8.0 11.0 0.00 0.00 0.00 57 1016.1
20260902102546 72 158 8.0 11.0 0.00 0.00 0.00 57 1016.1
20260902102046 73 149 8.0 13.0 0.00 0.00 0.00 57 1016.1
20260902101609 73 141 9.0 13.0 0.00 0.00 0.00 57 1016.1
20260902101046 73 158 9.0 13.0 0.00 0.00 0.00 56 1016.0
20260902100548 73 152 9.0 13.0 0.00 0.00 0.00 56 1016.1
20260902095547 73 145 8.0 12.0 0.00 0.00 0.00 56 1016.1
20260902095045 73 154 9.0 12.0 0.00 0.00 0.00 55 1016.1
20260902094605 74 158 9.0 12.0 0.00 0.00 0.00 55 1016.1
20260902094046 74 160 9.0 13.0 0.00 0.00 0.00 55 1016.0
20260902093547 74 148 9.0 13.0 0.00 0.00 0.00 54 1016.0
20260902093107 74 151 10.0 14.0 0.00 0.00 0.00 54 1016.1
20260902092551 75 166 10.0 14.0 0.00 0.00 0.00 53 1016.1
20260902092047 75 167 10.0 14.0 0.00 0.00 0.00 53 1016.1
20260902091555 75 151 10.0 14.0 0.00 0.00 0.00 53 1016.0
20260902091046 75 179 9.0 14.0 0.00 0.00 0.00 53 1016.0
20260902090547 76 160 10.0 14.0 0.00 0.00 0.00 52 1016.0
20260902090105 76 153 11.0 14.0 0.00 0.00 0.00 52 1016.0
20260902085546 76 156 10.0 15.0 0.00 0.00 0.00 52 1016.0
20260902085046 76 156 11.0 15.0 0.00 0.00 0.00 52 1015.9
20260902084602 77 152 10.0 15.0 0.00 0.00 0.00 51 1016.0
20260902084049 77 165 10.0 16.0 0.00 0.00 0.00 50 1015.9
20260902083550 77 172 11.0 16.0 0.00 0.00 0.00 50 1015.8
20260902083103 77 183 11.0 16.0 0.00 0.00 0.00 51 1015.9
20260902082548 77 165 11.0 16.0 0.00 0.00 0.00 51 1016.0
20260902082046 77 151 11.0 15.0 0.00 0.00 0.00 52 1015.9
20260902081557 77 159 11.0 15.0 0.00 0.00 0.00 52 1015.9
20260902081046 76 150 10.0 13.0 0.00 0.00 0.00 53 1016.0
20260902080546 76 154 9.0 13.0 0.00 0.00 0.00 54 1015.9
20260902075546 76 162 9.0 14.0 0.00 0.00 0.00 54 1015.8
20260902075046 76 150 9.0 12.0 0.00 0.00 0.00 55 1015.9
20260902074601 76 157 9.0 12.0 0.00 0.00 0.00 55 1015.8
20260902074046 76 166 8.0 12.0 0.00 0.00 0.00 55 1015.8
20260902073549 76 180 8.0 11.0 0.00 0.00 0.00 55 1015.8
20260902073105 76 195 8.0 11.0 0.00 0.00 0.00 56 1015.9
20260902072548 76 155 7.0 11.0 0.00 0.00 0.00 56 1015.8
20260902072051 76 151 7.0 11.0 0.00 0.00 0.00 56 1015.8
20260902071555 76 169 7.0 11.0 0.00 0.00 0.00 56 1015.8
20260902071048 76 153 7.0 11.0 0.00 0.00 0.00 56 1015.8
20260902070547 76 160 7.0 11.0 0.00 0.00 0.00 56 1015.8
20260902070058 76 153 7.0 11.0 0.00 0.00 0.00 56 1015.8
20260902065550 77 154 8.0 11.0 0.00 0.00 0.00 56 1015.8
20260902065051 77 162 7.0 10.0 0.00 0.00 0.00 56 1015.9
20260902064606 77 171 7.0 10.0 0.00 0.00 0.00 55 1015.8
20260902064048 77 154 7.0 10.0 0.00 0.00 0.00 56 1015.8
20260902063550 77 155 7.0 10.0 0.00 0.00 0.00 56 1015.8
20260902063109 77 172 7.0 9.0 0.00 0.00 0.00 56 1015.8
20260902062548 77 160 7.0 9.0 0.00 0.00 0.00 56 1015.8
20260902062047 77 156 6.0 9.0 0.00 0.00 0.00 56 1015.8
20260902061625 77 169 5.0 9.0 0.00 0.00 0.00 56 1015.8
20260902061146 77 149 6.0 9.0 0.00 0.00 0.00 56 1015.8
20260902060547 77 158 6.0 9.0 0.00 0.00 0.00 56 1015.7
20260902060106 77 147 6.0 9.0 0.00 0.00 0.00 56 1015.8
20260902055548 77 158 6.0 9.0 0.00 0.00 0.00 56 1015.8
20260902055048 77 145 5.0 7.0 0.00 0.00 0.00 56 1015.9
20260902054555 77 165 5.0 7.0 0.00 0.00 0.00 55 1015.9
20260902054047 78 139 5.0 7.0 0.00 0.00 0.00 55 1015.8
20260902053548 78 150 5.0 8.0 0.00 0.00 0.00 54 1015.8
20260902053106 79 175 5.0 8.0 0.00 0.00 0.00 54 1015.8
20260902052549 79 203 5.0 8.0 0.00 0.00 0.00 54 1016.0
20260902052048 79 212 6.0 8.0 0.00 0.00 0.00 54 1015.8
20260902051610 79 181 6.0 8.0 0.00 0.00 0.00 53 1015.8
20260902051048 79 179 5.0 8.0 0.00 0.00 0.00 53 1015.9
20260902050548 79 196 5.0 8.0 0.00 0.00 0.00 53 1015.9
20260902050059 79 188 5.0 9.0 0.00 0.00 0.00 52 1015.9
20260902045547 80 186 5.0 9.0 0.00 0.00 0.00 52 1016.0
20260902045048 80 198 5.0 9.0 0.00 0.00 0.00 51 1016.0
20260902044636 80 195 5.0 9.0 0.00 0.00 0.00 51 1015.8
20260902044049 80 174 6.0 11.0 0.00 0.00 0.00 51 1015.7
20260902043547 80 180 7.0 11.0 0.00 0.00 0.00 50 1015.7
20260902043106 81 172 6.0 12.0 0.00 0.00 0.00 50 1015.6
20260902042548 81 165 7.0 12.0 0.00 0.00 0.00 49 1015.7
20260902042049 81 175 8.0 12.0 0.00 0.00 0.00 49 1015.6
20260902041605 81 179 8.0 12.0 0.00 0.00 0.00 49 1015.6
20260902041047 81 170 8.0 10.0 0.00 0.00 0.00 49 1015.7
20260902040548 81 195 6.0 10.0 0.00 0.00 0.00 48 1015.6
20260902040058 82 178 6.0 9.0 0.00 0.00 0.00 47 1015.6
20260902035548 82 175 5.0 9.0 0.00 0.00 0.00 47 1015.6
20260902035048 82 195 5.0 9.0 0.00 0.00 0.00 46 1015.4
20260902034603 83 182 6.0 13.0 0.00 0.00 0.00 46 1015.4
20260902034048 83 197 5.0 13.0 0.00 0.00 0.00 45 1015.4
20260902033548 84 195 5.0 10.0 0.00 0.00 0.00 45 1015.5
20260902033059 84 215 6.0 10.0 0.00 0.00 0.00 45 1015.5
20260902032550 84 226 7.0 10.0 0.00 0.00 0.00 45 1015.4
20260902032048 84 214 4.0 11.0 0.00 0.00 0.00 44 1015.4
20260902031606 84 235 6.0 11.0 0.00 0.00 0.00 44 1015.5
20260902031048 84 238 7.0 10.0 0.00 0.00 0.00 44 1015.6
20260902030548 83 176 3.0 9.0 0.00 0.00 0.00 45 1015.5
20260902030108 83 251 4.0 6.0 0.00 0.00 0.00 46 1015.4
20260902025549 83 239 3.0 6.0 0.00 0.00 0.00 46 1015.6
20260902025048 82 222 2.0 4.0 0.00 0.00 0.00 46 1015.7
20260902024605 82 0 2.0 3.0 0.00 0.00 0.00 46 1015.5
20260902024047 82 238 0.0 6.0 0.00 0.00 0.00 45 1015.4
20260902023547 82 239 0.0 6.0 0.00 0.00 0.00 45 1015.4
20260902023106 83 281 3.0 6.0 0.00 0.00 0.00 45 1015.3
20260902022548 83 211 3.0 7.0 0.00 0.00 0.00 44 1015.1
20260902022047 83 145 4.0 7.0 0.00 0.00 0.00 44 1014.9
20260902021605 82 149 5.0 7.0 0.00 0.00 0.00 45 1014.8
20260902021048 81 166 5.0 7.0 0.00 0.00 0.00 46 1014.7
20260902020550 81 142 4.0 5.0 0.00 0.00 0.00 46 1014.6
20260902020108 81 150 3.0 5.0 0.00 0.00 0.00 45 1014.5
20260902015549 82 139 4.0 5.0 0.00 0.00 0.00 45 1014.4
20260902015047 82 147 4.0 5.0 0.00 0.00 0.00 44 1014.4
20260902014600 83 141 3.0 4.0 0.00 0.00 0.00 43 1014.3
20260902014049 83 139 3.0 4.0 0.00 0.00 0.00 41 1014.2
20260902013548 84 146 4.0 5.0 0.00 0.00 0.00 40 1014.2
20260902013110 85 153 3.0 5.0 0.00 0.00 0.00 39 1014.2
20260902012547 86 151 3.0 5.0 0.00 0.00 0.00 38 1014.2
20260902012049 87 143 4.0 5.0 0.00 0.00 0.00 36 1014.2
20260902011557 88 125 3.0 5.0 0.00 0.00 0.00 36 1014.2
20260902011053 88 165 3.0 5.0 0.00 0.00 0.00 35 1014.2
20260902010547 89 173 3.0 5.0 0.00 0.00 0.00 34 1014.1
20260902010105 90 178 3.0 6.0 0.00 0.00 0.00 33 1014.1
20260902005548 91 167 4.0 7.0 0.00 0.00 0.00 33 1014.2
20260902005046 91 166 4.0 7.0 0.00 0.00 0.00 32 1014.2
20260902004603 91 155 5.0 7.0 0.00 0.00 0.00 32 1014.2
20260902004047 92 169 4.0 7.0 0.00 0.00 0.00 31 1014.2
20260902003546 92 147 5.0 8.0 0.00 0.00 0.00 30 1014.2
20260902003103 93 162 4.0 11.0 0.00 0.00 0.00 30 1014.2
20260902002546 93 153 5.0 11.0 0.00 0.00 0.00 29 1014.2
20260902002049 94 158 8.0 11.0 0.00 0.00 0.00 29 1014.1
20260902001606 94 205 8.0 11.0 0.00 0.00 0.00 29 1014.2
20260902001045 94 174 6.0 15.0 0.00 0.00 0.00 28 1014.2
20260902000548 95 173 9.0 15.0 0.00 0.00 0.00 28 1014.1
20260902000104 95 134 9.0 13.0 0.00 0.00 0.00 27 1014.1
20260901235546 95 179 7.0 12.0 0.00 0.00 0.00 27 1014.2
20260901235048 96 187 6.0 14.0 0.00 0.00 0.00 27 1014.0
20260901234609 96 201 7.0 15.0 0.00 0.00 0.00 26 1014.0
20260901234046 97 209 11.0 16.0 0.00 0.00 0.00 26 1014.2
20260901233546 98 168 10.0 16.0 0.00 0.00 0.00 26 1014.0
20260901233107 98 137 10.0 16.0 0.00 0.00 0.00 26 1014.1
20260901232546 98 174 7.0 17.0 0.00 0.00 0.00 26 1014.1
20260901232052 98 161 11.0 19.0 0.00 0.00 0.00 26 1014.0
20260901231616 98 167 14.0 19.0 0.00 0.00 0.00 25 1014.0
20260901231046 98 139 10.0 17.0 0.00 0.00 0.00 26 1014.0
20260901230549 97 171 12.0 16.0 0.00 0.00 0.00 27 1014.0
20260901230111 97 155 8.0 16.0 0.00 0.00 0.00 27 1014.1
20260901225546 98 157 8.0 16.0 0.00 0.00 0.00 27 1014.2
20260901225046 98 156 11.0 17.0 0.00 0.00 0.00 26 1014.2
20260901224604 98 206 12.0 17.0 0.00 0.00 0.00 26 1014.2
20260901224046 98 148 12.0 16.0 0.00 0.00 0.00 27 1014.0
20260901223549 98 155 7.0 15.0 0.00 0.00 0.00 27 1014.1
20260901223104 98 142 9.0 24.0 0.00 0.00 0.00 27 1014.2
20260901222545 98 166 12.0 24.0 0.00 0.00 0.00 27 1014.2
20260901222047 98 197 13.0 23.0 0.00 0.00 0.00 27 1014.2
20260901221613 99 172 14.0 23.0 0.00 0.00 0.00 27 1014.2
20260901221049 98 159 10.0 17.0 0.00 0.00 0.00 26 1014.3
20260901220550 98 204 10.0 20.0 0.00 0.00 0.00 27 1014.3
20260901220107 98 158 15.0 20.0 0.00 0.00 0.00 27 1014.4
20260901215548 98 146 12.0 20.0 0.00 0.00 0.00 26 1014.3
20260901215048 98 179 10.0 20.0 0.00 0.00 0.00 26 1014.3
20260901214607 97 185 11.0 20.0 0.00 0.00 0.00 27 1014.4
20260901214048 96 165 6.0 21.0 0.00 0.00 0.00 27 1014.4
20260901213548 97 222 7.0 22.0 0.00 0.00 0.00 26 1014.6
20260901213058 98 158 16.0 22.0 0.00 0.00 0.00 25 1014.7
20260901212548 98 168 9.0 22.0 0.00 0.00 0.00 26 1014.7
20260901212048 98 153 5.0 12.0 0.00 0.00 0.00 26 1014.7
20260901211603 97 224 7.0 16.0 0.00 0.00 0.00 26 1014.8
20260901211048 98 189 10.0 16.0 0.00 0.00 0.00 26 1014.9
20260901210551 98 234 8.0 17.0 0.00 0.00 0.00 25 1014.9
20260901210105 98 238 10.0 18.0 0.00 0.00 0.00 26 1015.0
20260901205548 98 199 13.0 22.0 0.00 0.00 0.00 26 1015.2
20260901205050 97 200 12.0 25.0 0.00 0.00 0.00 26 1015.2
20260901204558 98 165 11.0 25.0 0.00 0.00 0.00 25 1015.3
20260901204048 98 202 13.0 21.0 0.00 0.00 0.00 25 1015.4
20260901203548 98 191 11.0 18.0 0.00 0.00 0.00 25 1015.4
20260901203104 98 186 12.0 21.0 0.00 0.00 0.00 25 1015.6
20260901202548 98 161 12.0 21.0 0.00 0.00 0.00 26 1015.8
20260901202051 98 156 9.0 18.0 0.00 0.00 0.00 26 1015.8
20260901201602 97 226 9.0 18.0 0.00 0.00 0.00 26 1015.8
20260901201048 97 120 7.0 14.0 0.00 0.00 0.00 27 1015.9
20260901200548 97 157 7.0 18.0 0.00 0.00 0.00 29 1016.1
20260901195548 96 217 15.0 20.0 0.00 0.00 0.00 29 1016.2
20260901195048 96 207 7.0 19.0 0.00 0.00 0.00 29 1016.2